{"data":{"norad_id":59712,"intl_designator":"2024-088E","name":"STARLINK-11108 [DTC]","alt_names":[],"object_type":"PAYLOAD","status":"ACTIVE","operator":null,"country":"US","launch_date":"2024-05-10","launch_site_code":"AFWTR","launch_vehicle":null,"mission":null,"orbit_class":"UNKNOWN","rcs_meters":null,"size_class":null,"mass_kg":null,"dimensions":null,"purposes":["comms"],"wikipedia_slug":null,"has_3d_model":false,"image_url":null,"decayed_at":null,"tle_current":{"epoch":"2026-09-21T21:00:58.716576Z","epoch_age_seconds":52528,"freshness":"FRESH","line1":"1 59712U 24088E   26264.87567959 -.00002848  00000+0 -18650-4 0  9999","line2":"2 59712  53.1588  79.2781 0000746  89.4798 270.6306 15.69727022137086","mean_motion":15.69727022,"eccentricity":7.46e-5,"inclination_deg":53.1588,"raan_deg":79.2781,"arg_perigee_deg":89.4798,"mean_anomaly_deg":270.6306,"bstar":-1.865e-5,"rev_number":13708,"period_min":91.735695430998,"perigee_km":359.17539940962,"apogee_km":360.18068141365,"semimajor_km":6737.8150404116,"source":"CELESTRAK","updated_at":"2026-09-22T09:00:49.058021Z"}}}